カタログに戻る

STARLINK-11268

運用中通信VLEO
NORAD 61055·PAYLOAD·🇺🇸 United States

打ち上げ Sep 13, 2024 から Vandenberg Space Force Base

Loading…

次のパス (今後24時間)

TLE

最新Source: CelesTrak SupGP

元期: Sep 15, 2026, 02:48 UTC

1 61055C 24164F   26258.11715278  .00049277  00000+0  40560-3 0  2583
2 61055  53.1564  97.1944 0001036  75.9668 306.4474 15.69703356    12

AllMySatでSTARLINK-11268をリアルタイム追跡

Download on the App Store